Location: Bonny Doon Airfield
(37.0704°N, 122.1252°W)
Time: 15:00:49
(UTC-07:00)

Envisat - Pass Details

Date: 07 October 2017
Orbit: 764 x 766 km, 98.2° (Epoch: 19 October)

Event Time Altitude Azimuth Distance (km) Brightness Sun altitude
Exits shadow 19:58:37 22° 66° (ENE) 1,637 4.2 -16.0°
Drops below altitude 10° 20:02:23 10° 18° (NNE) 2,307 5.3 -16.8°
Sets 20:05:09 0° 3° (N) 3,237 6.3 -17.3°
